Year,Month,Day,Hour,Minute,Value (Times are PST for temperature in C)
2011,05,20,00,00,9.20
2011,05,20,00,01,9.20
2011,05,20,00,02,9.20
2011,05,20,00,03,9.20
2011,05,20,00,04,9.20
2011,05,20,00,05,9.20
2011,05,20,00,06,9.20
2011,05,20,00,07,9.20
2011,05,20,00,08,9.20
2011,05,20,00,09,9.20
2011,05,20,00,10,9.20
2011,05,20,00,11,9.20
2011,05,20,00,12,9.20
2011,05,20,00,13,9.20
2011,05,20,00,14,9.10
2011,05,20,00,15,9.10
2011,05,20,00,16,9.10
2011,05,20,00,17,9.10
2011,05,20,00,18,9.10
2011,05,20,00,19,9.10
2011,05,20,00,20,9.10
2011,05,20,00,21,9.20
2011,05,20,00,22,9.20
2011,05,20,00,23,9.20
2011,05,20,00,24,9.10
2011,05,20,00,25,9.10
2011,05,20,00,26,9.10
2011,05,20,00,27,9.00
2011,05,20,00,28,9.00
2011,05,20,00,29,8.90
2011,05,20,00,30,8.90
2011,05,20,00,31,8.90
2011,05,20,00,32,8.80
2011,05,20,00,33,8.70
2011,05,20,00,34,8.60
2011,05,20,00,35,8.60
2011,05,20,00,36,8.50
2011,05,20,00,37,8.50
2011,05,20,00,38,8.40
2011,05,20,00,39,8.40
2011,05,20,00,40,8.40
2011,05,20,00,41,8.40
2011,05,20,00,42,8.40
2011,05,20,00,43,8.40
2011,05,20,00,44,8.40
2011,05,20,00,45,8.50
2011,05,20,00,46,8.50
2011,05,20,00,47,8.50
2011,05,20,00,48,8.60
2011,05,20,00,49,8.70
2011,05,20,00,50,8.70
2011,05,20,00,51,8.70
2011,05,20,00,52,8.70
2011,05,20,00,53,8.60
2011,05,20,00,54,8.60
2011,05,20,00,55,8.60
2011,05,20,00,56,8.60
2011,05,20,00,57,8.60
2011,05,20,00,58,8.60
2011,05,20,00,59,8.60
2011,05,20,01,00,8.50
2011,05,20,01,01,8.50
2011,05,20,01,02,8.40
2011,05,20,01,03,8.40
2011,05,20,01,04,8.40
2011,05,20,01,05,8.30
2011,05,20,01,06,8.30
2011,05,20,01,07,8.40
2011,05,20,01,08,8.40
2011,05,20,01,09,8.30
2011,05,20,01,10,8.30
2011,05,20,01,11,8.40
2011,05,20,01,12,8.40
2011,05,20,01,13,8.40
2011,05,20,01,14,8.30
2011,05,20,01,15,8.30
2011,05,20,01,16,8.30
2011,05,20,01,17,8.30
2011,05,20,01,18,8.30
2011,05,20,01,19,8.30
2011,05,20,01,20,8.30
2011,05,20,01,21,8.20
2011,05,20,01,22,8.20
2011,05,20,01,23,8.20
2011,05,20,01,24,8.20
2011,05,20,01,25,8.20
2011,05,20,01,26,8.20
2011,05,20,01,27,8.20
2011,05,20,01,28,8.10
2011,05,20,01,29,8.10
2011,05,20,01,30,8.10
2011,05,20,01,31,8.10
2011,05,20,01,32,8.10
2011,05,20,01,33,8.10
2011,05,20,01,34,8.10
2011,05,20,01,35,8.10
2011,05,20,01,36,8.20
2011,05,20,01,37,8.20
2011,05,20,01,38,8.20
2011,05,20,01,39,8.20
2011,05,20,01,40,8.20
2011,05,20,01,41,8.20
2011,05,20,01,42,8.10
2011,05,20,01,43,8.10
2011,05,20,01,44,8.20
2011,05,20,01,45,8.20
2011,05,20,01,46,8.20
2011,05,20,01,47,8.10
2011,05,20,01,48,8.10
2011,05,20,01,49,8.10
2011,05,20,01,50,8.10
2011,05,20,01,51,8.00
2011,05,20,01,52,8.00
2011,05,20,01,53,8.00
2011,05,20,01,54,7.90
2011,05,20,01,55,7.90
2011,05,20,01,56,7.90
2011,05,20,01,57,7.80
2011,05,20,01,58,7.80
2011,05,20,01,59,7.80
2011,05,20,02,00,7.70
2011,05,20,02,01,7.70
2011,05,20,02,02,7.60
2011,05,20,02,03,7.60
2011,05,20,02,04,7.60
2011,05,20,02,05,7.50
2011,05,20,02,06,7.50
2011,05,20,02,07,7.50
2011,05,20,02,08,7.50
2011,05,20,02,09,7.60
2011,05,20,02,10,7.60
2011,05,20,02,11,7.60
2011,05,20,02,12,7.60
2011,05,20,02,13,7.60
2011,05,20,02,14,7.50
2011,05,20,02,15,7.50
2011,05,20,02,16,7.40
2011,05,20,02,17,7.40
2011,05,20,02,18,7.40
2011,05,20,02,19,7.40
2011,05,20,02,20,7.40
2011,05,20,02,21,7.40
2011,05,20,02,22,7.40
2011,05,20,02,23,7.40
2011,05,20,02,24,7.30
2011,05,20,02,25,7.30
2011,05,20,02,26,7.30
2011,05,20,02,27,7.30
2011,05,20,02,28,7.30
2011,05,20,02,29,7.30
2011,05,20,02,30,7.30
2011,05,20,02,31,7.30
2011,05,20,02,32,7.30
2011,05,20,02,33,7.30
2011,05,20,02,34,7.30
2011,05,20,02,35,7.40
2011,05,20,02,36,7.40
2011,05,20,02,37,7.40
2011,05,20,02,38,7.50
2011,05,20,02,39,7.50
2011,05,20,02,40,7.50
2011,05,20,02,41,7.50
2011,05,20,02,42,7.50
2011,05,20,02,43,7.40
2011,05,20,02,44,7.40
2011,05,20,02,45,7.40
2011,05,20,02,46,7.40
2011,05,20,02,47,7.40
2011,05,20,02,48,7.40
2011,05,20,02,49,7.40
2011,05,20,02,50,7.40
2011,05,20,02,51,7.40
2011,05,20,02,52,7.40
2011,05,20,02,53,7.40
2011,05,20,02,54,7.40
2011,05,20,02,55,7.30
2011,05,20,02,56,7.30
2011,05,20,02,57,7.30
2011,05,20,02,58,7.30
2011,05,20,02,59,7.20
2011,05,20,03,00,7.20
2011,05,20,03,01,7.10
2011,05,20,03,02,7.10
2011,05,20,03,03,7.00
2011,05,20,03,04,7.00
2011,05,20,03,05,6.90
2011,05,20,03,06,6.90
2011,05,20,03,07,6.80
2011,05,20,03,08,6.80
2011,05,20,03,09,6.80
2011,05,20,03,10,6.80
2011,05,20,03,11,6.70
2011,05,20,03,12,6.70
2011,05,20,03,13,6.70
2011,05,20,03,14,6.60
2011,05,20,03,15,6.60
2011,05,20,03,16,6.60
2011,05,20,03,17,6.60
2011,05,20,03,18,6.60
2011,05,20,03,19,6.50
2011,05,20,03,20,6.40
2011,05,20,03,21,6.40
2011,05,20,03,22,6.40
2011,05,20,03,23,6.40
2011,05,20,03,24,6.40
2011,05,20,03,25,6.40
2011,05,20,03,26,6.40
2011,05,20,03,27,6.40
2011,05,20,03,28,6.40
2011,05,20,03,29,6.40
2011,05,20,03,30,6.40
2011,05,20,03,31,6.40
2011,05,20,03,32,6.40
2011,05,20,03,33,6.40
2011,05,20,03,34,6.40
2011,05,20,03,35,6.50
2011,05,20,03,36,6.60
2011,05,20,03,37,6.60
2011,05,20,03,38,6.70
2011,05,20,03,39,6.70
2011,05,20,03,40,6.70
2011,05,20,03,41,6.70
2011,05,20,03,42,6.70
2011,05,20,03,43,6.70
2011,05,20,03,44,6.80
2011,05,20,03,45,6.80
2011,05,20,03,46,6.80
2011,05,20,03,47,6.80
2011,05,20,03,48,6.80
2011,05,20,03,49,6.80
2011,05,20,03,50,6.80
2011,05,20,03,51,6.70
2011,05,20,03,52,6.80
2011,05,20,03,53,6.80
2011,05,20,03,54,6.70
2011,05,20,03,55,6.60
2011,05,20,03,56,6.60
2011,05,20,03,57,6.60
2011,05,20,03,58,6.60
2011,05,20,03,59,6.60
2011,05,20,04,00,6.50
2011,05,20,04,01,6.50
2011,05,20,04,02,6.60
2011,05,20,04,03,6.50
2011,05,20,04,04,6.40
2011,05,20,04,05,6.40
2011,05,20,04,06,6.40
2011,05,20,04,07,6.40
2011,05,20,04,08,6.40
2011,05,20,04,09,6.40
2011,05,20,04,10,6.40
2011,05,20,04,11,6.40
2011,05,20,04,12,6.40
2011,05,20,04,13,6.40
2011,05,20,04,14,6.50
2011,05,20,04,15,6.60
2011,05,20,04,16,6.70
2011,05,20,04,17,6.70
2011,05,20,04,18,6.80
2011,05,20,04,19,6.80
2011,05,20,04,20,6.80
2011,05,20,04,21,6.80
2011,05,20,04,22,6.80
2011,05,20,04,23,6.80
2011,05,20,04,24,6.80
2011,05,20,04,25,6.80
2011,05,20,04,26,6.90
2011,05,20,04,27,6.80
2011,05,20,04,28,6.80
2011,05,20,04,29,6.80
2011,05,20,04,30,6.80
2011,05,20,04,31,6.80
2011,05,20,04,32,6.80
2011,05,20,04,33,6.80
2011,05,20,04,34,6.80
2011,05,20,04,35,6.80
2011,05,20,04,36,6.70
2011,05,20,04,37,6.70
2011,05,20,04,38,6.60
2011,05,20,04,39,6.60
2011,05,20,04,40,6.60
2011,05,20,04,41,6.50
2011,05,20,04,42,6.40
2011,05,20,04,43,6.40
2011,05,20,04,44,6.40
2011,05,20,04,45,6.30
2011,05,20,04,46,6.30
2011,05,20,04,47,6.20
2011,05,20,04,48,6.20
2011,05,20,04,49,6.20
2011,05,20,04,50,6.20
2011,05,20,04,51,6.10
2011,05,20,04,52,6.10
2011,05,20,04,53,6.10
2011,05,20,04,54,6.10
2011,05,20,04,55,6.10
2011,05,20,04,56,6.10
2011,05,20,04,57,6.10
2011,05,20,04,58,6.10
2011,05,20,04,59,6.10
2011,05,20,05,00,6.00
2011,05,20,05,01,6.00
2011,05,20,05,02,6.00
2011,05,20,05,03,5.90
2011,05,20,05,04,5.90
2011,05,20,05,05,5.90
2011,05,20,05,06,5.90
2011,05,20,05,07,5.80
2011,05,20,05,08,5.80
2011,05,20,05,09,5.70
2011,05,20,05,10,5.70
2011,05,20,05,11,5.70
2011,05,20,05,12,5.70
2011,05,20,05,13,5.70
2011,05,20,05,14,5.70
2011,05,20,05,15,5.70
2011,05,20,05,16,5.70
2011,05,20,05,17,5.70
2011,05,20,05,18,5.70
2011,05,20,05,19,5.70
2011,05,20,05,20,5.70
2011,05,20,05,21,5.80
2011,05,20,05,22,5.80
2011,05,20,05,23,5.80
2011,05,20,05,24,5.80
2011,05,20,05,25,5.80
2011,05,20,05,26,5.80
2011,05,20,05,27,5.80
2011,05,20,05,28,5.80
2011,05,20,05,29,5.70
2011,05,20,05,30,5.70
2011,05,20,05,31,5.70
2011,05,20,05,32,5.70
2011,05,20,05,33,5.70
2011,05,20,05,34,5.70
2011,05,20,05,35,5.70
2011,05,20,05,36,5.70
2011,05,20,05,37,5.70
2011,05,20,05,38,5.70
2011,05,20,05,39,5.70
2011,05,20,05,40,5.70
2011,05,20,05,41,5.80
2011,05,20,05,42,5.80
2011,05,20,05,43,5.90
2011,05,20,05,44,6.00
2011,05,20,05,45,6.00
2011,05,20,05,46,6.00
2011,05,20,05,47,6.10
2011,05,20,05,48,6.10
2011,05,20,05,49,6.10
2011,05,20,05,50,6.10
2011,05,20,05,51,6.10
2011,05,20,05,52,6.10
2011,05,20,05,53,6.10
2011,05,20,05,54,6.10
2011,05,20,05,55,6.20
2011,05,20,05,56,6.20
2011,05,20,05,57,6.30
2011,05,20,05,58,6.40
2011,05,20,05,59,6.60
2011,05,20,06,00,6.70
2011,05,20,06,01,6.70
2011,05,20,06,02,6.80
2011,05,20,06,03,6.80
2011,05,20,06,04,6.70
2011,05,20,06,05,6.70
2011,05,20,06,06,6.70
2011,05,20,06,07,6.70
2011,05,20,06,08,6.70
2011,05,20,06,09,6.80
2011,05,20,06,10,6.80
2011,05,20,06,11,6.80
2011,05,20,06,12,6.80
2011,05,20,06,13,6.80
2011,05,20,06,14,6.90
2011,05,20,06,15,6.90
2011,05,20,06,16,6.90
2011,05,20,06,17,7.00
2011,05,20,06,18,7.00
2011,05,20,06,19,7.00
2011,05,20,06,20,7.00
2011,05,20,06,21,7.10
2011,05,20,06,22,7.10
2011,05,20,06,23,7.10
2011,05,20,06,24,7.20
2011,05,20,06,25,7.20
2011,05,20,06,26,7.30
2011,05,20,06,27,7.30
2011,05,20,06,28,7.40
2011,05,20,06,29,7.50
2011,05,20,06,30,7.60
2011,05,20,06,31,7.60
2011,05,20,06,32,7.70
2011,05,20,06,33,7.70
2011,05,20,06,34,7.80
2011,05,20,06,35,7.80
2011,05,20,06,36,7.80
2011,05,20,06,37,7.90
2011,05,20,06,38,8.00
2011,05,20,06,39,8.00
2011,05,20,06,40,8.10
2011,05,20,06,41,8.20
2011,05,20,06,42,8.20
2011,05,20,06,43,8.30
2011,05,20,06,44,8.40
2011,05,20,06,45,8.50
2011,05,20,06,46,8.50
2011,05,20,06,47,8.60
2011,05,20,06,48,8.70
2011,05,20,06,49,8.70
2011,05,20,06,50,8.80
2011,05,20,06,51,8.90
2011,05,20,06,52,9.00
2011,05,20,06,53,9.00
2011,05,20,06,54,9.10
2011,05,20,06,55,9.20
2011,05,20,06,56,9.20
2011,05,20,06,57,9.20
2011,05,20,06,58,9.30
2011,05,20,06,59,9.40
2011,05,20,07,00,9.50
2011,05,20,07,01,9.70
2011,05,20,07,02,9.70
2011,05,20,07,03,9.80
2011,05,20,07,04,9.90
2011,05,20,07,05,10.00
2011,05,20,07,06,10.10
2011,05,20,07,07,10.20
2011,05,20,07,08,10.40
2011,05,20,07,09,10.50
2011,05,20,07,10,10.60
2011,05,20,07,11,10.70
2011,05,20,07,12,10.80
2011,05,20,07,13,10.90
2011,05,20,07,14,11.00
2011,05,20,07,15,11.10
2011,05,20,07,16,11.20
2011,05,20,07,17,11.30
2011,05,20,07,18,11.40
2011,05,20,07,19,11.50
2011,05,20,07,20,11.60
2011,05,20,07,21,11.60
2011,05,20,07,22,11.60
2011,05,20,07,23,11.70
2011,05,20,07,24,11.80
2011,05,20,07,25,11.80
2011,05,20,07,26,11.80
2011,05,20,07,27,11.80
2011,05,20,07,28,11.80
2011,05,20,07,29,11.80
2011,05,20,07,30,11.80
2011,05,20,07,31,11.80
2011,05,20,07,32,11.80
2011,05,20,07,33,11.80
2011,05,20,07,34,11.80
2011,05,20,07,35,11.70
2011,05,20,07,36,11.60
2011,05,20,07,37,11.50
2011,05,20,07,38,11.40
2011,05,20,07,39,11.30
2011,05,20,07,40,11.20
2011,05,20,07,41,11.10
2011,05,20,07,42,11.10
2011,05,20,07,43,11.10
2011,05,20,07,44,11.10
2011,05,20,07,45,11.20
2011,05,20,07,46,11.20
2011,05,20,07,47,11.30
2011,05,20,07,48,11.30
2011,05,20,07,49,11.30
2011,05,20,07,50,11.30
2011,05,20,07,51,11.40
2011,05,20,07,52,11.40
2011,05,20,07,53,11.50
2011,05,20,07,54,11.60
2011,05,20,07,55,11.70
2011,05,20,07,56,11.80
2011,05,20,07,57,12.00
2011,05,20,07,58,12.20
2011,05,20,07,59,12.40
2011,05,20,08,00,12.60
2011,05,20,08,01,12.70
2011,05,20,08,02,12.80
2011,05,20,08,03,12.90
2011,05,20,08,04,13.10
2011,05,20,08,05,13.20
2011,05,20,08,06,13.30
2011,05,20,08,07,13.50
2011,05,20,08,08,13.60
2011,05,20,08,09,13.70
2011,05,20,08,10,13.70
2011,05,20,08,11,13.80
2011,05,20,08,12,13.90
2011,05,20,08,13,14.00
2011,05,20,08,14,14.00
2011,05,20,08,15,14.10
2011,05,20,08,16,14.20
2011,05,20,08,17,14.20
2011,05,20,08,18,14.20
2011,05,20,08,19,14.20
2011,05,20,08,20,14.20
2011,05,20,08,21,14.10
2011,05,20,08,22,14.10
2011,05,20,08,23,14.10
2011,05,20,08,24,14.10
2011,05,20,08,25,14.20
2011,05,20,08,26,14.20
2011,05,20,08,27,14.20
2011,05,20,08,28,14.30
2011,05,20,08,29,14.40
2011,05,20,08,30,14.50
2011,05,20,08,31,14.60
2011,05,20,08,32,14.60
2011,05,20,08,33,14.70
2011,05,20,08,34,14.80
2011,05,20,08,35,14.80
2011,05,20,08,36,14.90
2011,05,20,08,37,15.00
2011,05,20,08,38,15.00
2011,05,20,08,39,15.10
2011,05,20,08,40,15.10
2011,05,20,08,41,15.10
2011,05,20,08,42,15.10
2011,05,20,08,43,15.10
2011,05,20,08,44,15.10
2011,05,20,08,45,15.10
2011,05,20,08,46,15.20
2011,05,20,08,47,15.30
2011,05,20,08,48,15.30
2011,05,20,08,49,15.50
2011,05,20,08,50,15.50
2011,05,20,08,51,15.60
2011,05,20,08,52,15.70
2011,05,20,08,53,15.80
2011,05,20,08,54,15.80
2011,05,20,08,55,15.80
2011,05,20,08,56,15.80
2011,05,20,08,57,15.90
2011,05,20,08,58,15.90
2011,05,20,08,59,15.90
2011,05,20,09,00,15.90
2011,05,20,09,01,15.90
2011,05,20,09,02,15.90
2011,05,20,09,03,16.00
2011,05,20,09,04,16.00
2011,05,20,09,05,15.90
2011,05,20,09,06,15.80
2011,05,20,09,07,15.60
2011,05,20,09,08,15.50
2011,05,20,09,09,15.30
2011,05,20,09,10,15.20
2011,05,20,09,11,15.10
2011,05,20,09,12,15.10
2011,05,20,09,13,15.00
2011,05,20,09,14,14.80
2011,05,20,09,15,14.80
2011,05,20,09,16,14.80
2011,05,20,09,17,14.70
2011,05,20,09,18,14.70
2011,05,20,09,19,14.70
2011,05,20,09,20,14.80
2011,05,20,09,21,14.80
2011,05,20,09,22,14.90
2011,05,20,09,23,14.90
2011,05,20,09,24,14.80
2011,05,20,09,25,14.80
2011,05,20,09,26,14.80
2011,05,20,09,27,14.80
2011,05,20,09,28,14.70
2011,05,20,09,29,14.60
2011,05,20,09,30,14.60
2011,05,20,09,31,14.50
2011,05,20,09,32,14.40
2011,05,20,09,33,14.30
2011,05,20,09,34,14.30
2011,05,20,09,35,14.20
2011,05,20,09,36,14.20
2011,05,20,09,37,14.20
2011,05,20,09,38,14.20
2011,05,20,09,39,14.20
2011,05,20,09,40,14.10
2011,05,20,09,41,13.90
2011,05,20,09,42,13.80
2011,05,20,09,43,13.70
2011,05,20,09,44,13.70
2011,05,20,09,45,13.60
2011,05,20,09,46,13.60
2011,05,20,09,47,13.60
2011,05,20,09,48,13.60
2011,05,20,09,49,13.70
2011,05,20,09,50,13.70
2011,05,20,09,51,13.70
2011,05,20,09,52,13.70
2011,05,20,09,53,13.90
2011,05,20,09,54,14.00
2011,05,20,09,55,14.20
2011,05,20,09,56,14.30
2011,05,20,09,57,14.30
2011,05,20,09,58,14.40
2011,05,20,09,59,14.50
2011,05,20,10,00,14.60
2011,05,20,10,01,14.70
2011,05,20,10,02,14.80
2011,05,20,10,03,14.90
2011,05,20,10,04,15.00
2011,05,20,10,05,15.10
2011,05,20,10,06,15.20
2011,05,20,10,07,15.30
2011,05,20,10,08,15.30
2011,05,20,10,09,15.40
2011,05,20,10,10,15.50
2011,05,20,10,11,15.60
2011,05,20,10,12,15.60
2011,05,20,10,13,15.60
2011,05,20,10,14,15.50
2011,05,20,10,15,15.30
2011,05,20,10,16,15.30
2011,05,20,10,17,15.30
2011,05,20,10,18,15.30
2011,05,20,10,19,15.30
2011,05,20,10,20,15.30
2011,05,20,10,21,15.40
2011,05,20,10,22,15.60
2011,05,20,10,23,15.60
2011,05,20,10,24,15.70
2011,05,20,10,25,15.70
2011,05,20,10,26,15.60
2011,05,20,10,27,15.60
2011,05,20,10,28,15.60
2011,05,20,10,29,15.70
2011,05,20,10,30,15.80
2011,05,20,10,31,15.80
2011,05,20,10,32,15.80
2011,05,20,10,33,15.80
2011,05,20,10,34,15.80
2011,05,20,10,35,15.60
2011,05,20,10,36,15.60
2011,05,20,10,37,15.60
2011,05,20,10,38,15.60
2011,05,20,10,39,15.70
2011,05,20,10,40,15.80
2011,05,20,10,41,15.90
2011,05,20,10,42,15.90
2011,05,20,10,43,16.00
2011,05,20,10,44,16.10
2011,05,20,10,45,16.00
2011,05,20,10,46,16.10
2011,05,20,10,47,16.10
2011,05,20,10,48,16.20
2011,05,20,10,49,16.20
2011,05,20,10,50,16.20
2011,05,20,10,51,16.10
2011,05,20,10,52,16.20
2011,05,20,10,53,16.30
2011,05,20,10,54,16.20
2011,05,20,10,55,16.00
2011,05,20,10,56,15.90
2011,05,20,10,57,15.80
2011,05,20,10,58,15.90
2011,05,20,10,59,16.00
2011,05,20,11,00,16.10
2011,05,20,11,01,16.20
2011,05,20,11,02,16.40
2011,05,20,11,03,16.50
2011,05,20,11,04,16.70
2011,05,20,11,05,16.90
2011,05,20,11,06,17.00
2011,05,20,11,07,17.20
2011,05,20,11,08,17.30
2011,05,20,11,09,17.30
2011,05,20,11,10,17.40
2011,05,20,11,11,17.40
2011,05,20,11,12,17.40
2011,05,20,11,13,17.30
2011,05,20,11,14,17.20
2011,05,20,11,15,17.00
2011,05,20,11,16,16.80
2011,05,20,11,17,16.80
2011,05,20,11,18,16.80
2011,05,20,11,19,16.80
2011,05,20,11,20,16.70
2011,05,20,11,21,16.70
2011,05,20,11,22,16.70
2011,05,20,11,23,16.80
2011,05,20,11,24,16.90
2011,05,20,11,25,17.20
2011,05,20,11,26,17.40
2011,05,20,11,27,17.50
2011,05,20,11,28,17.70
2011,05,20,11,29,17.80
2011,05,20,11,30,17.90
2011,05,20,11,31,17.90
2011,05,20,11,32,18.10
2011,05,20,11,33,18.00
2011,05,20,11,34,17.90
2011,05,20,11,35,17.90
2011,05,20,11,36,17.90
2011,05,20,11,37,17.90
2011,05,20,11,38,17.90
2011,05,20,11,39,17.90
2011,05,20,11,40,17.90
2011,05,20,11,41,17.80
2011,05,20,11,42,17.80
2011,05,20,11,43,17.80
2011,05,20,11,44,17.80
2011,05,20,11,45,17.80
2011,05,20,11,46,17.90
2011,05,20,11,47,17.90
2011,05,20,11,48,17.90
2011,05,20,11,49,18.10
2011,05,20,11,50,18.10
2011,05,20,11,51,18.00
2011,05,20,11,52,17.90
2011,05,20,11,53,17.80
2011,05,20,11,54,17.80
2011,05,20,11,55,17.70
2011,05,20,11,56,17.70
2011,05,20,11,57,17.80
2011,05,20,11,58,17.90
2011,05,20,11,59,17.90
2011,05,20,12,00,18.00
2011,05,20,12,01,18.10
2011,05,20,12,02,18.10
2011,05,20,12,03,18.20
2011,05,20,12,04,18.20
2011,05,20,12,05,18.10
2011,05,20,12,06,18.00
2011,05,20,12,07,17.90
2011,05,20,12,08,17.90
2011,05,20,12,09,17.90
2011,05,20,12,10,18.00
2011,05,20,12,11,18.10
2011,05,20,12,12,18.10
2011,05,20,12,13,18.00
2011,05,20,12,14,17.90
2011,05,20,12,15,17.90
2011,05,20,12,16,17.80
2011,05,20,12,17,17.70
2011,05,20,12,18,17.70
2011,05,20,12,19,17.70
2011,05,20,12,20,17.70
2011,05,20,12,21,17.70
2011,05,20,12,22,17.70
2011,05,20,12,23,17.60
2011,05,20,12,24,17.50
2011,05,20,12,25,17.50
2011,05,20,12,26,17.50
2011,05,20,12,27,17.60
2011,05,20,12,28,17.70
2011,05,20,12,29,17.70
2011,05,20,12,30,17.70
2011,05,20,12,31,17.80
2011,05,20,12,32,17.80
2011,05,20,12,33,17.90
2011,05,20,12,34,17.90
2011,05,20,12,35,17.90
2011,05,20,12,36,17.90
2011,05,20,12,37,18.00
2011,05,20,12,38,18.10
2011,05,20,12,39,18.20
2011,05,20,12,40,18.30
2011,05,20,12,41,18.40
2011,05,20,12,42,18.30
2011,05,20,12,43,18.30
2011,05,20,12,44,18.30
2011,05,20,12,45,18.20
2011,05,20,12,46,18.30
2011,05,20,12,47,18.30
2011,05,20,12,48,18.30
2011,05,20,12,49,18.30
2011,05,20,12,50,18.20
2011,05,20,12,51,18.30
2011,05,20,12,52,18.40
2011,05,20,12,53,18.50
2011,05,20,12,54,18.60
2011,05,20,12,55,18.80
2011,05,20,12,56,18.90
2011,05,20,12,57,18.90
2011,05,20,12,58,18.90
2011,05,20,12,59,18.90
2011,05,20,13,00,19.10
2011,05,20,13,01,19.10
2011,05,20,13,02,19.10
2011,05,20,13,03,19.20
2011,05,20,13,04,19.30
2011,05,20,13,05,19.40
2011,05,20,13,06,19.50
2011,05,20,13,07,19.50
2011,05,20,13,08,19.50
2011,05,20,13,09,19.60
2011,05,20,13,10,19.60
2011,05,20,13,11,19.60
2011,05,20,13,12,19.60
2011,05,20,13,13,19.50
2011,05,20,13,14,19.40
2011,05,20,13,15,19.30
2011,05,20,13,16,19.10
2011,05,20,13,17,19.10
2011,05,20,13,18,18.90
2011,05,20,13,19,18.90
2011,05,20,13,20,18.90
2011,05,20,13,21,19.00
2011,05,20,13,22,19.10
2011,05,20,13,23,19.10
2011,05,20,13,24,19.10
2011,05,20,13,25,19.10
2011,05,20,13,26,19.30
2011,05,20,13,27,19.40
2011,05,20,13,28,19.50
2011,05,20,13,29,19.60
2011,05,20,13,30,19.60
2011,05,20,13,31,19.70
2011,05,20,13,32,19.70
2011,05,20,13,33,19.70
2011,05,20,13,34,19.70
2011,05,20,13,35,19.70
2011,05,20,13,36,19.70
2011,05,20,13,37,19.80
2011,05,20,13,38,19.70
2011,05,20,13,39,19.60
2011,05,20,13,40,19.60
2011,05,20,13,41,19.60
2011,05,20,13,42,19.60
2011,05,20,13,43,19.70
2011,05,20,13,44,19.70
2011,05,20,13,45,19.70
2011,05,20,13,46,19.70
2011,05,20,13,47,19.80
2011,05,20,13,48,19.80
2011,05,20,13,49,19.90
2011,05,20,13,50,19.90
2011,05,20,13,51,20.00
2011,05,20,13,52,20.10
2011,05,20,13,53,20.10
2011,05,20,13,54,20.10
2011,05,20,13,55,20.00
2011,05,20,13,56,19.90
2011,05,20,13,57,19.90
2011,05,20,13,58,19.90
2011,05,20,13,59,19.90
2011,05,20,14,00,19.90
2011,05,20,14,01,19.90
2011,05,20,14,02,19.90
2011,05,20,14,03,19.80
2011,05,20,14,04,19.80
2011,05,20,14,05,19.80
2011,05,20,14,06,19.80
2011,05,20,14,07,19.90
2011,05,20,14,08,19.90
2011,05,20,14,09,20.00
2011,05,20,14,10,20.10
2011,05,20,14,11,20.20
2011,05,20,14,12,20.20
2011,05,20,14,13,20.30
2011,05,20,14,14,20.50
2011,05,20,14,15,20.50
2011,05,20,14,16,20.50
2011,05,20,14,17,20.50
2011,05,20,14,18,20.40
2011,05,20,14,19,20.40
2011,05,20,14,20,20.40
2011,05,20,14,21,20.40
2011,05,20,14,22,20.40
2011,05,20,14,23,20.30
2011,05,20,14,24,20.30
2011,05,20,14,25,20.40
2011,05,20,14,26,20.40
2011,05,20,14,27,20.40
2011,05,20,14,28,20.50
2011,05,20,14,29,20.50
2011,05,20,14,30,20.60
2011,05,20,14,31,20.70
2011,05,20,14,32,20.70
2011,05,20,14,33,20.60
2011,05,20,14,34,20.70
2011,05,20,14,35,20.70
2011,05,20,14,36,20.80
2011,05,20,14,37,20.90
2011,05,20,14,38,21.00
2011,05,20,14,39,21.10
2011,05,20,14,40,21.30
2011,05,20,14,41,21.30
2011,05,20,14,42,21.40
2011,05,20,14,43,21.50
2011,05,20,14,44,21.60
2011,05,20,14,45,21.60
2011,05,20,14,46,21.60
2011,05,20,14,47,21.60
2011,05,20,14,48,21.60
2011,05,20,14,49,21.60
2011,05,20,14,50,21.60
2011,05,20,14,51,21.60
2011,05,20,14,52,21.60
2011,05,20,14,53,21.70
2011,05,20,14,54,21.80
2011,05,20,14,55,21.80
2011,05,20,14,56,21.80
2011,05,20,14,57,21.80
2011,05,20,14,58,21.80
2011,05,20,14,59,21.90
2011,05,20,15,00,21.90
2011,05,20,15,01,22.00
2011,05,20,15,02,22.10
2011,05,20,15,03,22.30
2011,05,20,15,04,22.30
2011,05,20,15,05,22.30
2011,05,20,15,06,22.10
2011,05,20,15,07,22.10
2011,05,20,15,08,22.10
2011,05,20,15,09,22.10
2011,05,20,15,10,22.20
2011,05,20,15,11,22.30
2011,05,20,15,12,22.30
2011,05,20,15,13,22.50
2011,05,20,15,14,22.60
2011,05,20,15,15,22.70
2011,05,20,15,16,22.80
2011,05,20,15,17,22.70
2011,05,20,15,18,22.60
2011,05,20,15,19,22.50
2011,05,20,15,20,22.50
2011,05,20,15,21,22.50
2011,05,20,15,22,22.40
2011,05,20,15,23,22.30
2011,05,20,15,24,22.10
2011,05,20,15,25,21.70
2011,05,20,15,26,21.50
2011,05,20,15,27,21.30
2011,05,20,15,28,21.10
2011,05,20,15,29,20.90
2011,05,20,15,30,20.80
2011,05,20,15,31,20.70
2011,05,20,15,32,20.60
2011,05,20,15,33,20.60
2011,05,20,15,34,20.60
2011,05,20,15,35,20.50
2011,05,20,15,36,20.50
2011,05,20,15,37,20.50
2011,05,20,15,38,20.50
2011,05,20,15,39,20.60
2011,05,20,15,40,20.60
2011,05,20,15,41,20.60
2011,05,20,15,42,20.60
2011,05,20,15,43,20.70
2011,05,20,15,44,20.70
2011,05,20,15,45,20.70
2011,05,20,15,46,20.70
2011,05,20,15,47,20.60
2011,05,20,15,48,20.60
2011,05,20,15,49,20.70
2011,05,20,15,50,20.70
2011,05,20,15,51,20.70
2011,05,20,15,52,20.80
2011,05,20,15,53,20.90
2011,05,20,15,54,21.00
2011,05,20,15,55,21.00
2011,05,20,15,56,21.10
2011,05,20,15,57,21.20
2011,05,20,15,58,21.20
2011,05,20,15,59,21.20
2011,05,20,16,00,21.10
2011,05,20,16,01,20.90
2011,05,20,16,02,20.80
2011,05,20,16,03,20.80
2011,05,20,16,04,20.80
2011,05,20,16,05,20.80
2011,05,20,16,06,20.90
2011,05,20,16,07,20.90
2011,05,20,16,08,21.00
2011,05,20,16,09,21.00
2011,05,20,16,10,21.00
2011,05,20,16,11,21.00
2011,05,20,16,12,21.00
2011,05,20,16,13,21.10
2011,05,20,16,14,21.10
2011,05,20,16,15,21.10
2011,05,20,16,16,21.10
2011,05,20,16,17,21.10
2011,05,20,16,18,21.10
2011,05,20,16,19,21.10
2011,05,20,16,20,21.10
2011,05,20,16,21,21.10
2011,05,20,16,22,21.10
2011,05,20,16,23,21.20
2011,05,20,16,24,21.20
2011,05,20,16,25,21.20
2011,05,20,16,26,21.20
2011,05,20,16,27,21.20
2011,05,20,16,28,21.10
2011,05,20,16,29,21.10
2011,05,20,16,30,21.10
2011,05,20,16,31,21.20
2011,05,20,16,32,21.30
2011,05,20,16,33,21.40
2011,05,20,16,34,21.50
2011,05,20,16,35,21.60
2011,05,20,16,36,21.70
2011,05,20,16,37,21.70
2011,05,20,16,38,21.70
2011,05,20,16,39,21.70
2011,05,20,16,40,21.60
2011,05,20,16,41,21.60
2011,05,20,16,42,21.60
2011,05,20,16,43,21.50
2011,05,20,16,44,21.40
2011,05,20,16,45,21.40
2011,05,20,16,46,21.50
2011,05,20,16,47,21.60
2011,05,20,16,48,21.50
2011,05,20,16,49,21.40
2011,05,20,16,50,21.40
2011,05,20,16,51,21.30
2011,05,20,16,52,21.30
2011,05,20,16,53,21.30
2011,05,20,16,54,21.30
2011,05,20,16,55,21.30
2011,05,20,16,56,21.20
2011,05,20,16,57,21.20
2011,05,20,16,58,21.20
2011,05,20,16,59,21.20
2011,05,20,17,00,21.20
2011,05,20,17,01,21.10
2011,05,20,17,02,21.10
2011,05,20,17,03,21.10
2011,05,20,17,04,21.00
2011,05,20,17,05,21.00
2011,05,20,17,06,21.00
2011,05,20,17,07,21.00
2011,05,20,17,08,21.00
2011,05,20,17,09,21.00
2011,05,20,17,10,20.90
2011,05,20,17,11,20.90
2011,05,20,17,12,21.00
2011,05,20,17,13,21.10
2011,05,20,17,14,21.10
2011,05,20,17,15,21.20
2011,05,20,17,16,21.30
2011,05,20,17,17,21.30
2011,05,20,17,18,21.40
2011,05,20,17,19,21.50
2011,05,20,17,20,21.60
2011,05,20,17,21,21.70
2011,05,20,17,22,21.60
2011,05,20,17,23,21.50
2011,05,20,17,24,21.40
2011,05,20,17,25,21.30
2011,05,20,17,26,21.30
2011,05,20,17,27,21.20
2011,05,20,17,28,21.10
2011,05,20,17,29,21.00
2011,05,20,17,30,21.00
2011,05,20,17,31,21.00
2011,05,20,17,32,21.00
2011,05,20,17,33,21.00
2011,05,20,17,34,21.00
2011,05,20,17,35,21.10
2011,05,20,17,36,21.20
2011,05,20,17,37,21.30